Wind_Gust
15 14 14 14 16 16 17 17 17 18 18 18 18 18 19 15 17 17 16 18 16 17 16 15 16 15 17 20 19 18 17 17 17 16 18 19 20 18 19 16 12 15
14 15 14 14 14 14 15 15 16 17 19 18 18 17 14 12 15 16 18 18 18 19 18 16 16 17 18 18 16 16 15 16 17 16 17 19 20 19 18 15 18 20
14 15 15 15 16 14 16 18 18 20 19 20 18 16 14 13 15 16 16 17 16 16 15 16 17 17 16 15 15 15 16 16 16 14 16 19 20 19 17 19 18 19
14 15 17 17 18 19 19 19 18 22 20 20 19 17 17 14 16 17 17 17 17 17 17 17 16 16 14 11 10 11 14 17 17 15 16 16 17 18 18 17 17 18
17 17 16 17 16 17 18 20 22 21 20 20 19 16 16 16 16 19 17 17 19 18 18 17 15 14 16 17 15 15 18 17 16 15 16 16 17 17 18 17 17 18
17 18 17 16 15 16 18 18 21 21 21 19 20 16 17 17 18 18 18 18 19 20 19 17 17 17 17 17 18 18 17 16 16 16 16 17 16 16 17 16 17 18
19 19 17 16 16 17 16 19 19 18 19 19 18 19 17 18 18 18 18 21 20 20 19 18 17 17 17 17 17 16 17 16 16 17 17 16 16 16 16 16 18 18
20 18 18 17 16 16 18 19 20 20 17 17 18 18 17 19 19 18 19 20 20 21 20 19 17 17 17 17 17 16 16 16 16 17 17 17 16 16 17 16 15 16
20 19 19 16 17 18 18 20 19 18 17 17 17 15 15 18 18 19 18 19 19 20 20 18 18 19 18 17 17 17 17 17 17 18 18 17 17 17 17 16 15 15
21 21 20 19 17 17 17 17 18 16 13 14 15 15 16 16 17 19 19 19 19 18 17 17 17 18 20 19 19 18 17 18 18 19 19 18 18 18 18 18 17 17
22 21 20 20 20 17 16 17 16 11 10 14 15 16 16 16 18 19 20 21 21 20 19 17 17 18 18 18 17 16 16 16 17 18 18 18 18 17 14 17 18 18
21 20 21 20 19 18 16 13 11 11 15 15 17 17 16 15 16 20 22 22 21 20 19 19 19 18 18 18 17 16 15 15 15 16 17 17 17 17 17 17 17 18
23 21 20 19 18 18 15 13 10 12 16 17 17 17 16 15 15 18 20 21 21 20 20 19 19 19 18 17 17 16 16 15 14 15 15 16 15 16 17 17 17 15
24 23 20 21 18 18 16 11 9 10 14 16 16 16 16 16 17 17 19 20 19 17 16 17 18 18 17 17 16 17 16 15 15 14 15 15 15 15 15 16 14 15
26 23 21 20 20 16 16 13 11 10 13 14 14 15 14 15 15 16 14 18 19 16 16 17 17 16 17 17 17 16 15 15 15 15 15 15 15 15 15 15 12 15
28 24 24 22 22 21 16 12 10 10 12 13 14 13 13 13 14 14 15 16 15 15 15 18 17 13 10 12 9 16 17 16 16 16 16 15 15 15 15 15 15 16
28 27 25 25 24 21 18 15 11 10 9 11 11 9 7 8 10 12 14 14 14 14 14 12 10 10 12 13 11 8 13 15 16 16 16 16 16 16 15 16 16 16
29 28 27 27 26 26 24 21 18 16 15 12 11 9 7 6 7 9 10 9 9 11 11 10 10 6 10 10 11 11 8 15 15 16 16 16 16 16 16 16 16 16
28 28 27 27 27 25 23 23 21 20 20 18 15 12 9 10 9 8 8 8 7 9 10 9 10 5 6 9 10 11 11 10 15 17 16 16 16 16 16 16 16 16
28 28 28 27 26 25 22 22 22 21 18 17 17 19 17 14 13 12 12 12 11 8 9 8 8 6 5 8 10 11 12 11 13 15 15 16 17 17 16 16 17 17
28 28 28 28 27 26 24 24 23 21 20 19 20 19 19 16 16 16 16 14 14 12 9 9 9 11 8 8 10 12 13 11 13 13 14 14 14 15 15 14 15 14
28 27 27 27 27 26 26 25 23 22 21 19 21 23 22 21 19 18 17 16 16 16 13 10 11 12 7 7 12 15 15 14 13 13 13 12 11 10 10 11 12 13
27 27 26 27 27 26 26 25 24 23 21 18 20 20 20 21 22 23 21 20 18 17 16 15 12 13 10 7 12 15 12 15 14 14 13 13 11 10 10 9 9 10
27 26 26 26 27 27 26 25 24 22 22 21 21 19 20 17 16 17 20 21 23 24 21 17 15 15 12 6 7 8 10 17 16 16 14 14 13 12 11 12 14 13
24 25 25 26 26 26 25 25 24 24 22 22 23 21 20 19 20 18 16 18 20 22 24 22 18 16 15 9 7 7 10 13 16 17 17 14 15 14 13 13 14 14
24 24 25 26 26 25 26 25 23 23 23 23 23 22 22 22 24 23 22 19 19 24 24 23 20 20 21 15 12 12 11 10 11 15 17 17 15 16 16 15 15 15
Wind_Speed
8 6 6 7 8 5 6 9 7 8 8 7 8 7 7 7 8 9 9 10 10 10 8 7 9 7 7 7 9 9 8 7 7 7 9 9 10 10 7 9 7 7
8 9 7 7 6 6 6 8 8 9 9 9 9 7 6 5 8 7 9 9 9 10 8 8 9 8 10 9 8 7 6 7 7 6 8 10 9 9 9 9 11 11
8 8 8 9 8 9 9 9 9 8 7 9 9 7 7 7 8 8 8 8 8 8 8 9 9 9 8 7 7 6 6 7 8 7 8 9 8 8 9 10 10 11
8 8 9 9 10 11 9 9 10 8 7 9 10 8 8 7 9 9 9 10 9 9 9 9 9 8 6 3 3 3 6 8 8 8 8 7 7 8 8 8 9 10
10 10 9 9 9 9 10 10 12 10 9 10 10 9 8 8 9 10 9 9 8 8 9 9 8 7 9 9 8 6 8 8 8 8 8 7 7 8 8 8 9 10
9 9 9 9 9 9 9 10 11 11 11 10 11 7 8 9 9 10 10 10 9 10 10 9 9 9 9 9 10 9 8 7 8 9 8 9 8 7 7 8 9 9
11 10 11 9 9 10 9 8 10 9 9 10 8 8 9 9 10 10 10 10 10 10 10 10 10 9 9 8 9 9 8 9 8 9 9 8 8 9 8 8 9 9
12 11 10 9 10 9 10 11 11 11 9 8 9 9 9 10 10 10 9 9 10 11 10 10 9 9 10 9 9 8 9 7 8 9 9 9 8 8 9 8 8 8
12 11 10 10 10 10 10 10 10 10 9 9 9 8 8 9 10 10 10 9 9 9 10 9 9 8 8 9 9 9 9 9 8 9 9 9 9 9 9 8 8 8
12 12 12 11 10 9 10 10 9 7 5 7 8 8 8 8 9 10 10 9 9 9 9 9 9 9 9 8 9 9 9 9 9 9 9 9 9 9 9 9 9 9
13 12 11 12 12 9 9 10 8 5 4 7 7 8 8 8 8 8 9 9 9 10 10 9 9 10 10 9 8 8 8 8 9 9 9 9 9 9 9 9 10 10
12 11 11 11 11 10 10 8 5 5 5 6 8 9 9 8 7 8 9 10 10 10 10 10 10 10 10 10 9 9 8 7 7 8 8 8 8 9 9 9 9 8
13 12 11 11 9 10 9 7 6 5 6 8 8 9 8 8 7 9 9 10 10 10 10 10 10 10 9 9 9 9 8 8 7 7 7 7 8 8 9 9 8 7
13 13 11 11 9 9 9 6 4 4 5 7 8 8 7 7 8 9 10 10 9 8 7 9 9 9 8 8 8 8 8 8 7 7 7 7 7 7 8 8 6 8
14 12 11 11 11 9 9 8 6 4 5 5 6 7 6 7 7 8 8 10 10 8 8 8 8 7 7 7 7 8 7 7 7 7 7 7 7 7 7 8 6 8
15 13 13 12 12 12 9 7 5 5 6 6 6 5 5 5 6 7 7 9 8 7 8 9 8 5 7 11 9 8 8 6 6 7 7 7 7 7 8 8 8 8
15 15 14 14 13 12 10 9 6 4 4 5 5 4 2 3 4 5 6 7 7 7 6 6 4 4 11 12 10 8 7 6 7 7 7 7 7 8 8 8 8 9
16 15 15 15 15 14 13 11 10 9 8 6 6 5 3 1 2 3 4 3 3 5 5 3 2 3 9 10 10 10 7 6 6 6 7 7 7 8 7 8 8 8
16 16 15 15 15 14 13 12 12 12 11 10 9 7 5 4 4 2 2 2 2 3 4 3 2 1 5 8 9 10 9 6 6 7 7 8 7 8 8 8 7 7
16 16 16 15 15 14 12 12 12 11 10 9 8 9 9 8 8 7 6 5 5 2 3 2 1 5 5 7 9 10 10 9 5 6 7 7 8 8 7 8 9 8
16 16 16 16 16 15 14 14 13 12 11 11 10 11 10 8 8 9 8 7 7 5 2 3 3 9 8 7 9 10 11 10 5 5 6 6 6 8 7 7 8 6
15 15 15 15 15 15 15 14 13 13 12 10 10 11 11 11 10 10 9 9 9 8 6 4 4 10 7 4 8 10 12 7 5 5 5 5 4 4 4 4 5 6
14 15 15 16 15 15 15 14 14 13 12 9 9 9 11 11 12 12 10 10 10 10 9 7 6 9 9 1 8 13 10 5 6 5 4 4 4 3 3 3 2 3
14 14 14 15 15 15 15 13 13 11 12 10 11 10 11 10 8 9 10 11 12 11 11 8 8 11 11 5 2 5 6 7 6 6 6 5 5 4 4 4 6 10
13 14 14 14 15 14 14 14 13 12 11 11 11 11 11 10 10 10 8 8 10 12 19 13 10 11 13 8 7 5 1 4 6 7 7 6 6 6 5 5 5 8
12 14 14 14 14 14 13 13 12 12 12 12 12 11 11 12 12 12 12 11 11 11 11 13 11 9 11 12 10 10 10 2 3 7 7 8 7 6 6 6 6 6
Wind_Direction
301 298 280 244 237 249 247 250 254 257 263 259 249 232 223 213 217 201 198 193 197 201 202 197 194 185 195 214 217 210 210 211 209 207 215 212 215 211 207 220 204 216
296 289 279 268 254 244 243 246 251 251 254 255 249 237 226 209 210 199 199 199 198 207 207 196 197 191 203 204 208 212 213 213 214 211 215 214 217 213 207 201 202 215
299 286 270 258 249 237 234 242 245 248 242 247 246 237 226 213 212 195 197 202 206 207 202 194 202 208 207 201 202 208 214 216 216 207 212 215 216 215 216 207 208 211
296 281 273 264 256 245 233 237 241 243 246 245 245 238 226 208 203 194 196 197 198 200 203 199 199 204 190 177 179 187 225 224 218 210 213 218 217 218 216 213 208 210
313 299 292 277 261 245 235 233 235 237 234 242 248 237 228 211 203 208 198 191 191 192 198 200 191 188 178 179 193 201 212 218 213 208 209 211 215 216 216 215 209 210
318 303 292 283 260 245 241 233 236 238 238 241 242 236 231 221 213 209 203 195 192 199 205 199 185 191 191 197 199 204 209 215 213 207 210 213 212 209 211 210 213 214
323 315 297 274 262 252 242 246 248 241 242 241 236 228 224 221 215 207 203 200 197 202 202 194 189 188 190 194 196 203 211 213 212 208 208 209 209 207 208 209 211 215
327 322 306 290 269 259 255 246 244 244 243 239 232 229 221 222 216 207 201 195 199 203 201 194 188 188 184 182 191 197 208 212 216 208 208 211 206 207 206 208 213 215
329 333 322 296 272 267 263 258 252 247 236 234 228 227 222 223 218 211 202 193 200 206 204 195 184 182 190 181 183 193 205 210 214 212 209 211 209 209 207 203 203 207
339 336 335 323 290 266 260 257 254 248 243 237 235 236 229 222 223 217 207 196 201 208 202 193 184 180 185 191 190 196 203 210 212 213 212 212 213 212 209 207 204 201
341 342 339 335 321 287 261 259 260 250 227 244 242 242 235 229 223 223 214 204 202 201 194 186 179 179 179 184 190 193 200 206 211 213 215 216 216 216 214 210 207 207
343 342 340 334 327 310 277 262 260 256 242 238 246 244 241 237 229 223 219 210 206 201 191 182 180 182 182 180 182 184 192 204 213 217 219 220 217 216 214 214 216 210
345 342 339 336 325 314 291 258 251 251 262 266 255 245 242 235 228 227 223 220 213 201 193 187 182 180 179 177 177 178 186 196 209 217 223 224 223 219 218 218 220 221
343 341 339 342 328 330 319 279 245 234 237 255 261 259 254 245 237 227 228 227 219 199 184 188 185 180 176 175 174 175 179 192 200 210 215 219 224 222 221 223 205 211
348 345 344 346 345 340 340 334 306 294 270 265 267 267 264 257 249 240 232 225 219 207 196 195 193 178 175 176 175 175 179 186 197 203 207 212 216 219 217 212 193 211
356 353 352 352 352 352 337 334 325 291 274 268 271 275 278 269 258 247 234 224 208 196 197 201 196 179 159 173 176 171 176 185 193 202 202 204 208 210 212 208 197 198
0 359 358 1 357 351 345 339 330 325 294 288 295 296 278 267 262 247 230 222 204 189 188 205 200 165 154 167 171 170 173 185 195 202 203 204 205 205 206 208 205 205
3 1 3 3 3 2 2 1 1 10 7 354 350 356 9 351 281 262 249 235 206 182 181 184 169 108 157 165 173 176 188 187 200 204 204 206 204 201 203 202 202 199
5 6 6 6 6 4 4 5 10 19 16 8 12 9 20 34 26 358 339 311 238 173 153 152 151 104 180 171 178 178 184 202 192 201 204 205 201 200 198 195 192 186
8 9 10 8 7 6 6 11 17 19 14 11 9 13 19 18 14 18 11 1 351 21 99 85 115 357 279 195 180 176 175 194 202 189 199 200 203 203 200 198 193 188
10 11 12 12 11 12 13 17 20 21 24 26 25 24 25 21 17 12 8 3 3 354 39 61 15 341 290 207 182 176 171 193 197 186 194 198 197 195 189 175 174 173
15 14 14 15 15 15 18 19 20 22 23 25 36 36 34 31 28 24 14 10 4 3 357 17 18 355 326 225 171 167 164 183 175 168 168 158 158 153 159 160 163 165
19 19 18 17 19 20 21 21 20 21 24 23 33 38 44 38 36 32 24 17 14 10 4 354 353 356 347 315 161 155 161 155 146 148 132 129 117 117 116 104 110 155
22 24 24 23 24 24 25 26 26 27 29 31 41 39 39 39 40 44 36 26 20 17 5 357 350 351 357 8 305 200 164 140 145 139 127 123 115 94 99 90 60 32
25 29 30 31 30 29 28 27 28 30 32 38 42 46 45 41 38 38 38 37 31 24 18 13 359 344 350 8 32 344 247 133 136 132 132 132 126 107 87 88 77 53
34 33 34 34 33 31 31 32 30 32 32 39 45 49 50 48 46 44 42 34 33 39 30 19 4 345 345 20 31 28 355 344 127 132 131 129 122 115 109 88 77 73